[[{"header":{"parameterUnit":"m.s-1","parameterCategory":1,"la1":30.2991,"la2":30.254,"lo1":-89.0895,"lo2":-89.0444,"dy":0.0017,"dx":0.0017,"nx":28,"ny":28,"refTime":"2026-01-08T03:00:00:Z","depth":0,"parameterNumber":2,"parameterNumberName":"U-component_of_WINDS"},"data":[0,0,0,0,0,0,0,0,0,0,0,0,0,0,0,0,0,0,0,0,0,0,0,0,0,0,0,0,0,0,0,0,0,0,0,0,0,0,0,0,0,0,0,0,0,0,0,0,0,0,0,0,0,0,0,0,0,0,0.5592,0.5592,0,0.5622,0.5623,0.5623,0.5613,0.5613,0.5612,0.5612,0.5646,0.5648,0.565,0,0,0,0,0,0,0,0,0,0,0,0,0,0.5528,0.553,0.5592,0.5592,0.5592,0.5622,0.5623,0.5623,0.5614,0.5613,0.5612,0.5611,0.5646,0.5648,0.565,0,0,0,0,0,0,0,0,0,0,0,0,0,0.5557,0.553,0.5592,0.5591,0.5591,0.5622,0.5623,0.5623,0.5614,0.5613,0.5612,0.5611,0.5645,0.5648,0.565,0.5684,0,0,0.5657,0.5658,0,0,0,0,0,0,0,0,0.5556,0.556,0.5591,0.5591,0.5592,0.5613,0.5613,0.5644,0.5614,0.5605,0.5611,0.561,0.5636,0.5639,0.5647,0.5686,0.5687,0.5657,0.5659,0.566,0.566,0,0,0,0,0,0,0,0.5554,0.5558,0.5604,0.5591,0.5592,0.5591,0.5594,0.5619,0.5626,0.5606,0.5605,0.5609,0.5636,0.5645,0.5648,0.5688,0.5657,0.5659,0.5661,0.5662,0.5756,0.5757,0,0,0,0,0,0,0.5551,0.5557,0.5603,0.5605,0.5571,0.5593,0.5596,0.5607,0.5626,0.5628,0.561,0.5608,0.5642,0.5645,0.5649,0.5691,0.566,0.5662,0.5663,0.5755,0.5756,0.5758,0,0,0,0,0,0,0.555,0.5555,0.5602,0.558,0.5586,0.5595,0.5607,0.5608,0.5617,0.5629,0.563,0.5617,0.5641,0.5646,0.5675,0.5692,0.5663,0.5665,0.5754,0.5755,0.5757,0.5774,0,0,0,0,0,0,0.5548,0.5555,0.5567,0.5581,0.5587,0.5626,0.5608,0.561,0.5621,0.5619,0.5636,0.5638,0.5641,0.5672,0.5678,0.5694,0.5667,0.5752,0.5754,0.5756,0.5772,0.5776,0.5779,0,0,0,0,0,0.5545,0.5571,0.5567,0.5573,0.5603,0.5627,0.5631,0.5633,0.5622,0.5635,0.5642,0.5637,0.5689,0.5675,0.5681,0.5699,0.5751,0.5754,0.5756,0.577,0.5775,0.5779,0,0,0,0,0,0,0.556,0.5573,0.5569,0.5599,0.5612,0.5625,0.5641,0.5638,0.5654,0.5653,0.5655,0.5659,0.5689,0.5697,0.5681,0.5733,0.5719,0.5723,0.5727,0.5732,0.5735,0.5733,0.5669,0,0,0,0,0,0.5566,0.5584,0.5595,0.562,0.5627,0.5633,0.5644,0.5644,0.5658,0.5663,0.5673,0.5687,0.5707,0.572,0.5738,0.5773,0.5777,0.5788,0.5792,0.5795,0.5798,0.5818,0.5823,0.5766,0.5766,0.5766,0,0,0.558,0.5589,0.56,0.5623,0.5633,0.5652,0.5638,0.5659,0.5673,0.5667,0.5695,0.5702,0.5719,0.5751,0.5765,0.5758,0.5815,0.5798,0.58,0.5802,0.5821,0.5826,0.5831,0.5768,0.5767,0.5767,0,0,0.5615,0.5623,0.5646,0.5656,0.5671,0.5675,0.568,0.5694,0.5699,0.5726,0.5722,0.574,0.5774,0.5786,0.5796,0.5836,0.5832,0.5842,0.5862,0.5881,0.5885,0.5889,0.5904,0.5909,0.5846,0.5846,0.5846,0,0.563,0.5658,0.5658,0.5679,0.569,0.5684,0.5708,0.5718,0.5739,0.5747,0.5738,0.578,0.5791,0.5826,0.5835,0.5844,0.5851,0.584,0.5884,0.5888,0.5892,0.5906,0.5912,0.5847,0.5847,0.5847,0.5846,0,0.5677,0.5696,0.5713,0.5731,0.5744,0.5766,0.5771,0.5784,0.5784,0.5789,0.5818,0.583,0.5852,0.586,0.586,0.5895,0.5891,0.5883,0.5869,0.5899,0.5912,0.5917,0.5848,0.5848,0.5848,0.5847,0,0,0.5721,0.5739,0.5746,0.5754,0.577,0.5786,0.5809,0.5828,0.584,0.5854,0.5874,0.5902,0.5896,0.5908,0.5909,0.5926,0.5957,0.5917,0.5917,0.5924,0.5998,0.6003,0.6009,0.5955,0.5956,0.5957,0.5996,0,0.5757,0.5795,0.5796,0.5832,0.585,0.5845,0.5865,0.5878,0.5884,0.5901,0.5908,0.5928,0.5918,0.5925,0.5941,0.595,0.5972,0.5947,0.5974,0.5975,0.597,0.6016,0.6022,0.6058,0.6001,0.6002,0.6003,0,0.5804,0.5819,0.5856,0.587,0.5878,0.5895,0.5914,0.593,0.5945,0.5948,0.5962,0.5961,0.5985,0.597,0.6004,0.5987,0.5998,0.6004,0.6006,0.6008,0.5991,0.602,0.607,0.6076,0.6011,0.601,0.601,0,0.5832,0.5862,0.5888,0.5896,0.5913,0.5925,0.5933,0.5947,0.5959,0.5976,0.5984,0.6003,0.6014,0.603,0.6035,0.6023,0.607,0.6054,0.6074,0.6074,0.6084,0.6083,0.6136,0.6091,0.6091,0.6091,0.6091,0,0.5873,0.5896,0.5901,0.5917,0.5943,0.5945,0.5971,0.5979,0.5991,0.6009,0.6007,0.6024,0.603,0.6049,0.6053,0.6081,0.6086,0.609,0.6091,0.609,0.609,0.6098,0.6096,0.6092,0.6092,0.6091,0.6091,0,0.5909,0.5913,0.5941,0.5955,0.5959,0.5978,0.599,0.6006,0.6012,0.6035,0.6041,0.605,0.6072,0.6079,0.6105,0.6108,0.6141,0.614,0.6136,0.6136,0.6155,0.6154,0.6216,0.6224,0.6173,0.6173,0.6174,0,0.5934,0.5951,0.5966,0.5978,0.5986,0.6005,0.6017,0.602,0.6033,0.6052,0.6066,0.6087,0.6105,0.6141,0.6151,0.6172,0.6171,0.6191,0.6174,0.6173,0.6171,0.617,0.6172,0.6194,0.6195,0.6195,0.6196,0,0.5978,0.5979,0.5996,0.6014,0.6029,0.6043,0.6057,0.6067,0.6073,0.6088,0.611,0.6123,0.615,0.6172,0.6193,0.6203,0.6201,0.6201,0.6207,0.6206,0.6203,0.6205,0.6145,0.62,0.6199,0.6199,0.6199,0.6199,0.6009,0.6025,0.6038,0.6057,0.6068,0.6081,0.6097,0.6105,0.6123,0.6144,0.6146,0.617,0.6186,0.6214,0.6224,0.6244,0.6238,0.6246,0.6249,0.6251,0.6252,0.62,0.6248,0.6248,0.6248,0.6248,0.6248,0,0.6053,0.6062,0.6079,0.6099,0.6114,0.611,0.6126,0.6139,0.616,0.6174,0.6191,0.6217,0.6239,0.625,0.6272,0.6286,0.6285,0.6291,0.6291,0.6293,0.6256,0.6249,0.6291,0.6291,0.6291,0.6291,0.6291,0.6291,0.6078,0.6104,0.6107,0.6139,0.6148,0.6171,0.618,0.6193,0.6204,0.6233,0.625,0.6258,0.6271,0.6294,0.6314,0.6317,0.6326,0.6332,0.6335,0.63,0.6296,0.6291,0.6285,0.6334,0.6334,0.637,0.6371,0.6371]},{"header":{"parameterUnit":"m.s-1","parameterCategory":1,"la1":30.2991,"la2":30.254,"lo1":-89.0895,"lo2":-89.0444,"dy":0.0017,"dx":0.0017,"nx":28,"ny":28,"refTime":"2026-01-08T03:00:00:Z","depth":0,"parameterNumber":3,"parameterNumberName":"V-component_of_WINDS"},"data":[0,0,0,0,0,0,0,0,0,0,0,0,0,0,0,0,0,0,0,0,0,0,0,0,0,0,0,0,0,0,0,0,0,0,0,0,0,0,0,0,0,0,0,0,0,0,0,0,0,0,0,0,0,0,0,0,0,0,2.8996,2.8997,0,2.9068,2.9069,2.907,2.9091,2.909,2.909,2.909,2.9161,2.9163,2.9166,0,0,0,0,0,0,0,0,0,0,0,0,0,2.8874,2.8876,2.8996,2.8997,2.8998,2.9068,2.9069,2.907,2.9091,2.909,2.909,2.909,2.9161,2.9163,2.9166,0,0,0,0,0,0,0,0,0,0,0,0,0,2.8934,2.8877,2.8996,2.9017,2.9019,2.9068,2.9069,2.907,2.9091,2.909,2.909,2.9089,2.916,2.9163,2.9166,2.9199,0,0,2.9177,2.9178,0,0,0,0,0,0,0,0,2.8931,2.8939,2.9013,2.9015,2.9018,2.907,2.9052,2.9113,2.9091,2.9064,2.909,2.9089,2.9131,2.9137,2.9152,2.9202,2.9205,2.9177,2.9179,2.918,2.9181,0,0,0,0,0,0,0,2.8927,2.8936,2.9024,2.9014,2.9017,2.9022,2.903,2.9064,2.91,2.9066,2.9068,2.9076,2.9133,2.9148,2.9153,2.9206,2.9177,2.918,2.9182,2.9183,2.9287,2.9288,0,0,0,0,0,0,2.8919,2.8932,2.9022,2.9027,2.8972,2.9024,2.9033,2.9054,2.9099,2.9106,2.9077,2.9077,2.9143,2.9149,2.9156,2.9198,2.918,2.9184,2.9186,2.9287,2.9288,2.9288,0,0,0,0,0,0,2.8917,2.8927,2.9019,2.898,2.8992,2.9027,2.905,2.9056,2.9071,2.9107,2.9114,2.9086,2.9143,2.9151,2.9188,2.92,2.9185,2.9188,2.9286,2.9287,2.9288,2.928,0,0,0,0,0,0,2.8913,2.8926,2.8939,2.898,2.8994,2.9051,2.9051,2.9057,2.9078,2.9079,2.9118,2.9124,2.9143,2.9183,2.9192,2.9205,2.9191,2.9285,2.9286,2.9288,2.928,2.9281,2.9282,0,0,0,0,0,2.8908,2.8933,2.894,2.895,2.9011,2.9051,2.9059,2.9081,2.9078,2.9092,2.9115,2.9123,2.9198,2.9187,2.9197,2.9211,2.9284,2.9286,2.9288,2.9279,2.9281,2.9282,0,0,0,0,0,0,2.8892,2.8939,2.8947,2.8986,2.9014,2.9055,2.9072,2.9082,2.9112,2.9111,2.9137,2.9145,2.9181,2.9199,2.9186,2.9245,2.9241,2.9245,2.9231,2.9233,2.9235,2.9229,2.9194,0,0,0,0,0,2.8893,2.8922,2.8962,2.8992,2.9006,2.9037,2.9055,2.907,2.91,2.9112,2.9138,2.9167,2.9197,2.9216,2.9246,2.9283,2.9292,2.9297,2.9299,2.9299,2.9302,2.9324,2.9327,2.9294,2.9294,2.9294,0,0,2.8895,2.8924,2.8941,2.899,2.9014,2.9043,2.9047,2.9078,2.91,2.9117,2.9154,2.9174,2.9207,2.9245,2.9262,2.9261,2.9313,2.9302,2.9302,2.9304,2.9326,2.9329,2.9332,2.9295,2.9295,2.9295,0,0,2.8914,2.8939,2.8968,2.8992,2.9029,2.9049,2.9056,2.9095,2.9109,2.9147,2.9161,2.9187,2.9238,2.9262,2.928,2.9309,2.9317,2.9318,2.9324,2.9345,2.9348,2.935,2.9361,2.9364,2.932,2.932,2.932,0,2.8911,2.8957,2.8981,2.9011,2.9032,2.905,2.9079,2.9101,2.9145,2.9159,2.9158,2.9223,2.9247,2.929,2.9297,2.9312,2.932,2.9313,2.9345,2.9348,2.9351,2.9361,2.9365,2.932,2.932,2.932,2.932,0,2.8952,2.8984,2.9002,2.9046,2.9069,2.9098,2.9126,2.9146,2.9159,2.9179,2.9217,2.9247,2.9283,2.9294,2.9306,2.934,2.9338,2.9341,2.9337,2.9353,2.9363,2.9368,2.932,2.932,2.932,2.932,0,0,2.8963,2.9019,2.9026,2.9046,2.9088,2.9113,2.9143,2.9179,2.9196,2.9226,2.9252,2.9295,2.9299,2.932,2.9335,2.9353,2.9374,2.9353,2.9355,2.9356,2.9413,2.9411,2.9415,2.938,2.9381,2.9382,2.941,0,2.8987,2.9043,2.9065,2.911,2.9139,2.9157,2.9183,2.9212,2.9232,2.9259,2.928,2.9311,2.9312,2.9326,2.9344,2.9367,2.9386,2.9366,2.9404,2.9405,2.9395,2.942,2.9418,2.9444,2.9414,2.9415,2.9415,0,2.9023,2.9054,2.9102,2.9142,2.9155,2.9178,2.9214,2.924,2.9272,2.9285,2.931,2.9324,2.9356,2.9351,2.9395,2.9381,2.9398,2.9412,2.9413,2.9418,2.9411,2.9426,2.9452,2.9456,2.9422,2.9421,2.9421,0,2.9026,2.908,2.9116,2.9133,2.9179,2.9195,2.9215,2.9247,2.9268,2.9299,2.9313,2.9346,2.9365,2.939,2.9413,2.9407,2.9456,2.9452,2.9467,2.9467,2.9477,2.9476,2.9507,2.9487,2.9487,2.9487,2.9487,0,2.9051,2.908,2.9118,2.914,2.9173,2.9198,2.923,2.9251,2.9279,2.9306,2.9323,2.9347,2.9375,2.9403,2.9421,2.9455,2.9463,2.9475,2.9479,2.9474,2.9472,2.9485,2.9484,2.9488,2.9488,2.9488,2.9487,0,2.906,2.9087,2.9127,2.9168,2.9179,2.9201,2.9237,2.9258,2.9279,2.9312,2.9321,2.9354,2.9388,2.9413,2.9456,2.9468,2.9505,2.9509,2.9494,2.9497,2.9511,2.9509,2.9551,2.9558,2.9533,2.9534,2.9534,0,2.9074,2.9097,2.9141,2.916,2.918,2.9211,2.9232,2.9258,2.928,2.9319,2.9336,2.9371,2.9401,2.9453,2.9481,2.9514,2.952,2.9532,2.9525,2.9518,2.952,2.9519,2.9521,2.9533,2.9533,2.9533,2.9533,0,2.9097,2.9109,2.914,2.9176,2.9201,2.923,2.9259,2.9274,2.9305,2.9328,2.9363,2.9386,2.9431,2.9465,2.9502,2.9522,2.9533,2.9535,2.9541,2.9535,2.9526,2.9532,2.9497,2.9534,2.9534,2.9534,2.9534,2.9534,2.9109,2.9131,2.9165,2.9199,2.9224,2.9251,2.9274,2.9298,2.9328,2.9367,2.938,2.9416,2.9449,2.9499,2.9519,2.9548,2.9548,2.9556,2.9558,2.9559,2.9559,2.9521,2.9555,2.9555,2.9555,2.9555,2.9555,0,2.9134,2.9157,2.9187,2.9228,2.9255,2.9264,2.9297,2.9318,2.935,2.938,2.9409,2.9449,2.9483,2.9513,2.9548,2.9565,2.9571,2.9574,2.9573,2.9577,2.9557,2.9549,2.9568,2.9568,2.9568,2.9568,2.9568,2.9568,2.9149,2.9186,2.9202,2.9251,2.9274,2.9311,2.9329,2.9354,2.9378,2.9423,2.9451,2.9471,2.9501,2.9538,2.957,2.9578,2.959,2.9591,2.96,2.958,2.9579,2.9577,2.957,2.9594,2.9594,2.9619,2.9619,2.9619]}]]